User: anonymous   Login
Location: Bamobli
(6.6379°N, 10.9396°W)
Time: 16:18:21
(UTC+00:00)
Language:

Cosmos 1238 Rocket - Orbit

View from above orbital plane
View from above orbital plane
View from above satellite
View from above satellite

Ground track
Ground track

The orbit data is extracted from the following two-line orbital elements,

1 12139U 81003B   20225.14010019  .00001402  00000-0  63601-4 0  9992
2 12139  82.9467 272.2774 0463315  52.4050 311.8284 14.57308661 14567
Epoch (UTC): 12 August 2020 03:21:44
Eccentricity: 0.0463315
inclination: 82.9467°
perigee height: 374 km
apogee height: 1030 km
right ascension of ascending node: 272.2774°
argument of perigee: 52.4050°
revolutions per day: 14.57308661
mean anomaly at epoch: 311.8284°
orbit number at epoch: 1456

The dashed part of the orbit path shows where the satellite is in the earth's shadow,  

DLR